Location: Sternwarte ZA, Rosenfeld-Brittheim
(48.2889°N, 8.6789°E)
Time: 19:49:32
(UTC+02:00)

ISS - Pass Details

Date: 19 July 2019
Orbit: 409 x 418 km, 51.6° (Epoch: 20 July)

Event Time Altitude Azimuth Distance (km) Brightness Sun altitude
Rises 03:52:17 0° 291° (WNW) 2,348 -0.1 -14.0°
Reaches altitude 10° 03:54:26 10° 283° (WNW) 1,481 -1.2 -13.8°
Maximum altitude 03:57:34 40° 213° (SSW) 624 -3.4 -13.5°
Drops below altitude 10° 04:00:41 10° 142° (SE) 1,470 -1.2 -13.2°
Sets 04:02:50 0° 135° (SE) 2,327 -0.1 -13.0°
